Location: B�hl
(48.6968°N, 8.1352°E)
Time: 21:19:50
(UTC+00:00)

ASTEX 1 - Pass Details

Date: 08 March 2021
Orbit: 720 x 743 km, 92.7° (Epoch: 14 April)

Event Time Altitude Azimuth Distance (km) Brightness Sun altitude
Rises 18:44:14 0° 10° (N) 3,147 6.7 -14.3°
Reaches altitude 10° 18:46:36 10° 16° (NNE) 2,220 5.8 -14.7°
Maximum altitude 18:51:21 49° 91° (E) 931 3.5 -15.5°
Drops below altitude 10° 18:56:04 10° 166° (SSE) 2,204 5.6 -16.2°
Sets 18:58:25 0° 172° (S) 3,122 6.5 -16.6°
